Theta_e
334 334 338 340 342 342 344 344 343 344 344 344 344 343 342 343 343 343 344 343 342 342 344 344 344 344 342 341 341 339 338 336 335 333 333 333 332 333 333 332 331 330 330 330 331 332 332 332 331 330 330 329 328 327 327 327 327 326 325 324 323 324 324 325 325 322 321 322 323 321 321 322 322 327 333 336 337 335 332 334 334 333 333 334 337
330 334 339 340 340 342 343 343 343 344 344 343 343 342 341 341 341 343 344 343 343 342 343 343 342 341 340 338 337 335 334 334 333 332 332 332 332 331 331 331 330 330 329 330 330 330 330 330 330 329 328 328 328 327 326 326 325 324 324 323 323 322 323 324 324 320 319 319 319 318 317 319 320 324 332 335 335 335 331 332 332 333 330 336 336
331 335 339 340 342 342 343 343 343 344 344 343 342 342 341 341 341 340 342 343 343 342 342 341 340 339 337 335 334 334 332 332 332 332 332 332 331 330 329 330 330 329 328 328 328 328 328 329 329 329 328 327 327 327 326 325 324 324 324 324 323 321 322 323 323 319 318 317 317 315 314 315 317 320 329 333 334 333 331 332 331 332 332 336 334
334 337 338 340 341 341 342 343 343 344 343 343 343 342 341 341 340 340 340 341 341 341 340 339 338 336 335 334 333 332 331 331 331 330 330 330 330 329 328 328 328 328 328 327 326 326 326 327 328 327 327 326 326 325 324 323 322 323 323 323 322 321 321 322 322 318 316 314 313 312 307 300 304 316 326 331 332 331 330 331 330 330 333 335 336
336 337 339 338 340 341 342 344 344 343 343 342 342 341 341 340 340 339 340 340 340 339 337 336 335 334 333 333 332 331 331 330 330 329 328 328 328 328 328 327 327 326 326 326 326 325 325 324 325 324 324 323 323 323 322 321 321 321 321 321 321 320 321 322 320 316 315 313 312 307 299 300 301 313 324 330 330 328 330 330 329 329 331 333 334
336 337 338 337 338 341 342 342 342 342 342 342 341 340 340 340 340 339 339 339 338 337 335 335 334 333 333 332 332 331 330 329 328 328 327 327 327 327 327 326 326 326 325 325 324 323 323 323 322 322 322 322 322 321 321 321 321 320 321 321 321 319 320 320 317 315 313 311 308 301 298 300 302 307 322 328 328 327 329 329 329 329 330 331 332
337 337 337 337 337 340 341 342 342 342 342 341 340 340 340 339 339 338 338 337 336 335 334 333 332 332 332 332 331 330 330 329 329 328 328 327 326 325 325 324 324 323 323 323 323 323 322 321 321 320 321 321 321 321 320 320 321 321 321 320 319 319 318 316 314 313 312 305 297 297 298 301 301 305 319 325 327 328 328 329 327 329 329 329 330
337 337 337 337 338 340 341 341 342 342 341 340 339 338 340 339 338 337 336 335 334 333 333 332 331 330 330 330 330 329 329 329 328 327 326 324 323 323 323 323 323 322 322 322 322 322 321 321 320 320 321 322 321 321 320 320 321 321 321 320 318 317 317 313 311 311 310 299 298 297 298 301 301 303 316 324 326 328 328 327 327 328 328 328 326
336 337 337 337 338 341 340 340 340 341 341 340 338 338 336 335 334 334 335 333 332 331 331 330 330 330 329 329 328 328 327 326 325 324 323 323 323 322 321 322 321 321 321 321 322 322 322 322 321 321 321 321 321 321 320 320 321 320 319 318 317 316 315 313 310 310 302 299 297 298 299 303 300 301 312 323 325 327 327 324 326 326 325 326 325
332 336 336 336 337 339 339 340 340 340 339 338 336 337 336 335 334 333 331 330 330 330 330 329 328 328 327 327 326 325 324 323 323 323 323 323 322 321 321 321 321 321 321 321 321 321 321 321 320 320 320 320 320 320 320 320 319 318 318 317 316 315 314 312 309 306 299 297 297 298 301 309 301 300 310 323 325 326 324 323 324 323 323 325 325
328 330 333 336 337 339 339 339 338 338 337 336 336 334 332 331 330 329 328 329 328 328 327 326 326 326 325 324 323 322 322 322 322 322 322 322 322 322 321 321 321 320 319 319 320 319 319 319 319 319 319 319 319 319 318 318 317 317 316 315 314 314 314 311 308 300 297 296 296 299 301 308 299 298 315 323 323 325 322 323 323 324 325 325 326
325 327 328 331 335 336 337 336 335 335 335 334 332 331 330 329 328 327 327 327 326 326 325 324 324 323 323 321 320 320 320 321 321 321 321 322 321 321 320 319 319 319 318 319 319 319 319 319 319 319 319 319 319 318 317 317 316 316 315 314 313 312 312 308 303 300 296 295 296 303 297 296 297 301 318 322 323 324 323 324 324 324 326 327 326
323 324 325 327 329 334 334 334 333 332 333 331 330 330 329 328 327 326 326 325 325 324 324 323 323 321 320 319 318 318 318 318 318 319 320 320 320 319 318 318 319 318 319 319 319 319 319 319 319 319 319 319 318 317 316 316 315 315 314 313 312 311 309 308 300 297 296 295 297 299 297 296 297 310 317 320 322 322 323 324 324 325 325 324 323
321 322 322 323 326 329 332 332 331 330 331 330 329 328 328 327 327 326 325 324 324 323 323 322 320 319 319 318 318 317 317 317 316 316 316 316 316 316 317 318 318 319 319 319 319 318 318 318 318 318 318 317 317 316 315 315 315 315 314 313 311 310 309 306 303 295 296 295 299 300 299 300 298 311 316 319 321 322 323 323 324 325 323 321 321
319 320 320 320 320 323 327 328 329 329 329 328 327 327 326 325 325 324 324 323 323 322 321 320 319 319 318 317 317 317 316 316 315 315 313 313 314 315 315 316 317 317 318 317 317 317 317 317 317 317 317 316 316 315 314 314 314 313 313 312 311 309 308 300 297 294 294 297 297 301 298 296 308 311 316 318 319 320 322 323 323 323 322 322 323
319 318 318 316 316 315 317 322 324 324 325 325 325 325 325 324 323 323 322 321 321 320 319 318 318 317 317 317 316 316 315 314 313 312 312 312 312 313 313 315 315 316 316 316 315 316 316 316 316 316 316 315 315 314 313 313 313 312 311 311 310 309 308 306 295 294 293 294 298 299 297 298 308 313 315 316 318 319 320 322 322 322 321 322 322
319 319 317 315 313 310 310 312 317 320 321 321 321 322 322 322 322 321 320 319 318 318 317 317 317 316 315 315 315 314 314 313 313 312 311 311 311 310 312 314 314 314 315 315 315 315 315 315 315 315 315 314 313 313 312 312 311 310 310 309 309 308 307 307 295 294 294 298 299 296 297 298 307 314 315 317 316 318 319 321 321 320 320 320 320
314 315 314 315 310 308 306 305 305 306 307 314 318 317 317 316 316 315 315 315 314 314 314 314 313 312 311 311 312 312 312 312 311 312 311 310 310 310 311 313 313 314 313 314 314 313 314 314 313 314 314 313 312 311 310 310 309 309 309 308 307 307 306 306 294 294 294 300 295 299 297 305 313 314 315 316 316 317 318 319 319 319 318 318 319
312 310 310 307 304 302 301 300 301 300 302 304 306 312 315 314 314 314 314 313 313 312 313 312 312 310 310 309 310 311 311 311 310 311 310 310 309 311 310 310 312 312 312 312 312 312 313 312 312 313 312 311 310 309 309 309 308 308 307 306 306 306 305 300 293 293 295 294 296 296 295 310 313 315 316 316 315 316 317 317 317 317 317 317 317
311 311 307 306 304 301 300 300 299 299 301 302 304 306 314 313 313 313 312 312 312 312 312 312 313 312 311 311 310 306 308 307 310 308 310 311 310 310 308 308 310 310 311 310 311 311 311 311 311 311 311 310 308 308 307 308 308 307 307 306 306 304 294 292 292 293 294 295 298 295 304 311 313 314 315 316 314 315 315 316 316 316 316 316 316
307 307 306 305 304 302 302 303 303 304 304 304 303 303 308 310 312 312 312 311 311 311 310 310 308 308 309 309 308 302 298 300 302 304 309 307 310 311 309 308 308 309 309 309 309 309 309 310 310 310 309 308 306 306 306 306 306 307 307 306 305 294 293 293 293 294 295 294 296 295 307 310 312 313 315 314 314 314 314 314 314 315 315 315 314
304 303 303 303 302 302 302 302 302 302 301 302 302 303 304 306 300 302 304 306 310 309 305 303 306 298 304 301 299 303 299 300 304 310 302 304 303 309 310 309 309 309 309 308 307 308 308 308 308 309 308 307 305 295 296 301 303 305 305 303 295 292 293 293 292 293 295 293 299 299 307 309 311 312 313 314 313 314 313 313 313 313 313 314 313
302 302 302 301 300 300 301 301 301 301 300 299 301 303 297 298 299 300 304 307 306 302 298 299 296 297 298 297 300 298 298 298 303 307 305 305 302 306 307 307 308 307 307 306 306 307 307 307 307 307 306 305 296 293 293 293 293 301 300 295 292 292 292 293 292 292 293 294 295 303 307 309 310 311 312 312 313 312 311 311 312 312 312 312 312
301 301 301 303 301 299 299 300 299 299 299 299 300 297 298 297 297 297 298 298 298 300 296 296 296 296 297 297 296 298 296 295 304 304 303 296 296 301 303 303 303 303 305 300 302 303 305 304 304 305 301 297 293 293 293 293 293 293 293 293 292 292 292 292 292 292 292 294 294 304 306 307 309 310 311 311 312 310 310 310 311 311 311 311 311
300 300 300 300 300 300 300 300 299 298 298 301 298 296 296 295 296 296 296 296 295 295 296 296 296 296 296 297 296 296 295 294 295 294 294 294 293 293 294 294 294 293 302 292 293 294 296 293 293 296 292 293 293 293 293 293 293 293 293 293 293 292 292 292 292 292 292 292 294 304 305 306 308 310 310 310 311 310 310 310 310 310 310 310 310
299 297 297 298 298 298 298 298 297 296 296 297 298 300 296 294 295 298 295 295 296 295 295 295 295 296 296 298 297 294 294 294 294 293 294 293 293 293 293 293 293 293 296 292 292 293 293 292 293 293 292 292 292 292 293 294 292 292 292 292 292 292 291 291 291 291 291 291 293 302 304 305 306 308 308 309 309 309 309 308 309 309 309 309 309
296 294 295 295 296 297 297 296 296 296 296 295 295 294 293 295 297 300 296 296 295 294 294 295 296 295 295 298 295 293 293 292 293 293 293 293 293 293 293 293 293 292 293 292 292 292 292 292 292 291 291 292 292 292 292 292 292 291 292 292 292 292 291 291 290 290 290 291 295 301 302 305 305 306 306 308 308 308 308 308 308 310 310 308 308
294 293 294 295 299 295 296 296 295 294 293 294 294 294 295 296 300 298 296 303 294 293 294 295 297 295 297 296 298 293 292 292 293 292 292 293 293 293 293 293 292 291 292 293 292 292 292 292 292 291 291 291 291 292 292 292 291 291 291 291 291 291 291 290 289 289 290 290 292 296 301 304 304 304 305 306 306 307 308 308 309 309 309 309 309
293 293 294 294 294 296 294 294 295 292 293 294 294 294 294 294 294 293 295 303 293 293 295 295 295 297 295 296 297 293 292 293 292 292 292 293 293 293 292 292 292 291 292 292 292 291 292 291 291 290 291 291 291 291 292 291 291 291 291 291 291 291 290 289 289 289 289 289 290 293 300 302 303 303 304 304 305 307 308 307 308 308 308 308 307
293 293 293 293 292 293 293 293 293 293 294 294 293 293 293 293 294 294 296 298 293 295 295 293 293 293 294 295 296 295 293 292 292 292 292 293 292 292 293 292 291 291 291 292 292 291 291 291 290 291 291 290 290 291 292 290 290 291 290 290 290 290 290 288 288 288 289 289 290 291 296 300 303 301 302 302 303 304 305 306 306 307 307 308 307
296 294 293 294 298 294 294 296 299 300 294 293 294 294 295 293 297 294 293 292 295 297 294 293 293 293 294 293 293 297 294 293 293 292 293 292 292 292 292 292 291 291 291 292 292 292 291 290 290 290 290 290 290 290 290 289 289 289 290 289 290 290 289 288 288 288 288 289 289 288 291 299 300 300 300 301 302 302 303 303 304 306 307 306 306
295 294 294 295 294 292 293 294 296 300 296 297 299 295 292 296 295 293 292 294 298 293 292 294 297 294 294 293 293 294 296 292 293 294 294 292 291 291 291 292 291 291 292 292 292 292 290 290 291 291 290 290 290 289 289 289 288 288 289 289 289 289 287 287 287 288 288 288 287 286 289 293 297 298 298 299 300 300 301 301 302 303 304 305 304
296 295 295 296 293 292 292 293 293 293 292 293 293 294 293 295 294 292 295 297 293 293 292 292 291 294 293 293 293 296 294 294 293 293 294 291 291 291 291 292 292 291 291 292 291 291 290 290 290 291 290 290 289 288 289 287 287 287 288 288 288 287 286 286 286 287 286 285 285 287 287 289 288 296 297 297 297 298 299 300 300 301 302 301 301
296 295 295 294 296 298 297 295 295 295 295 295 294 294 294 296 296 293 299 294 292 292 297 292 295 293 293 293 293 295 294 293 293 292 292 291 291 290 290 291 291 291 291 291 290 290 289 290 290 289 291 289 287 287 287 286 286 287 286 287 286 285 284 285 286 285 284 284 285 287 285 285 286 289 289 295 295 296 297 298 298 299 299 299 300
297 295 295 295 298 295 296 296 299 294 295 295 295 295 294 294 293 293 293 294 294 292 292 291 290 292 293 292 294 295 293 293 293 292 292 291 290 290 290 290 291 291 290 290 290 290 289 289 289 288 287 287 287 287 285 285 285 285 285 285 284 284 284 284 284 284 284 285 286 285 284 284 287 288 288 285 293 294 295 296 297 297 297 297 298
296 296 297 296 295 294 296 294 296 293 294 296 293 293 294 293 293 300 293 294 293 293 293 291 291 292 293 292 293 295 292 292 292 292 291 291 289 289 289 290 290 290 290 289 290 289 289 289 288 287 286 285 286 284 284 284 284 284 284 283 283 284 283 282 283 284 285 284 283 284 284 284 287 287 290 285 285 290 293 293 294 295 295 295 295
297 296 296 294 294 294 296 293 293 293 294 295 294 295 293 294 293 293 293 295 294 294 291 290 292 293 291 291 293 295 292 292 292 292 292 291 289 289 289 290 290 289 288 289 289 289 288 288 286 287 286 284 283 283 283 283 283 283 283 282 283 284 282 282 283 285 284 282 283 283 284 284 287 288 284 284 284 283 289 291 292 293 293 293 293
299 297 295 294 294 293 293 292 292 294 294 293 294 294 294 294 293 292 296 293 292 292 290 291 292 291 292 292 293 294 293 292 292 292 291 292 290 289 289 289 289 289 288 288 288 288 288 286 285 285 285 283 282 282 282 282 282 282 282 282 282 283 282 282 285 286 281 282 283 283 283 283 283 283 284 283 283 283 283 286 290 290 290 291 292
298 296 294 294 294 293 294 297 295 294 294 294 295 294 293 292 291 291 291 292 292 291 290 291 291 292 291 292 293 294 295 291 291 291 292 290 289 289 289 289 289 288 288 287 287 287 287 285 284 284 284 283 282 282 281 282 282 281 281 282 282 282 282 283 284 282 281 281 284 285 283 283 282 283 283 282 282 282 282 282 281 281 282 290 290
296 296 296 295 293 294 293 294 296 294 293 293 294 293 291 291 291 291 291 291 291 293 291 290 291 291 293 292 292 292 293 293 290 290 290 291 289 289 288 288 288 288 287 286 285 285 284 283 283 283 282 282 282 282 282 281 281 280 281 281 281 281 281 283 282 281 282 281 281 282 281 283 281 281 282 282 282 282 282 281 285 281 282 285 289
295 295 295 294 294 294 294 293 294 293 293 292 292 291 291 289 289 290 290 289 291 291 291 291 292 292 291 292 292 292 291 292 292 290 289 290 289 288 287 287 287 287 287 285 285 285 284 283 283 282 282 280 280 281 282 281 279 278 278 279 279 281 283 283 280 280 281 281 281 280 281 281 281 281 281 281 281 281 281 281 281 281 281 281 282
296 294 295 295 294 294 294 293 293 293 292 291 292 291 290 289 288 289 289 288 287 289 290 290 291 293 292 291 291 290 290 291 292 290 289 288 288 288 287 286 286 286 287 286 285 286 282 282 282 280 281 280 279 281 281 280 277 276 275 276 278 279 281 279 280 280 280 281 281 280 281 281 280 280 281 280 280 280 281 281 280 280 280 280 281
296 295 293 294 294 293 293 293 293 293 292 292 291 290 291 292 290 289 287 288 289 290 290 292 292 291 290 291 291 290 290 290 290 291 289 288 287 287 286 285 285 286 284 283 282 281 281 281 281 279 278 279 280 281 280 280 276 277 277 275 273 273 279 276 279 280 280 280 280 279 281 280 280 280 280 280 279 280 280 280 280 280 280 280 280
296 295 293 292 293 294 292 292 293 292 291 293 295 291 293 292 291 290 290 288 289 291 289 289 289 290 290 291 291 289 289 289 289 289 288 287 287 286 286 284 284 285 283 281 280 280 281 280 280 280 279 277 278 278 281 279 278 277 272 273 273 274 272 273 275 278 278 279 279 279 280 280 279 279 279 279 279 279 279 279 279 279 279 279 280
295 294 293 292 294 293 293 292 292 292 292 296 293 293 293 290 289 289 290 290 290 289 289 289 290 292 290 290 290 289 289 289 288 287 289 286 285 285 284 283 283 283 283 280 280 280 280 280 280 279 278 277 276 276 278 280 278 280 276 274 273 273 272 273 274 274 277 278 277 278 280 279 278 279 278 278 279 279 279 279 279 279 279 279 280
295 295 294 293 292 293 292 291 292 292 292 292 292 293 291 288 287 288 288 287 288 287 287 287 288 288 288 289 289 289 289 287 286 286 286 287 284 284 282 282 282 283 283 280 280 280 279 279 280 278 277 278 277 276 275 279 279 279 279 276 275 272 272 274 274 271 277 277 277 278 278 278 278 278 278 278 277 278 279 278 278 278 279 279 280
296 295 293 292 292 292 292 292 292 293 293 292 293 293 289 288 287 288 288 288 288 289 288 288 287 288 289 289 288 289 287 286 285 284 284 285 283 282 281 281 282 283 283 280 280 279 279 279 281 278 278 280 277 275 275 275 276 277 278 277 278 278 276 273 271 273 271 275 276 277 277 278 277 277 277 277 277 277 278 279 278 278 279 279 279
296 294 292 292 292 292 291 293 295 294 292 291 292 293 291 291 291 290 291 288 288 288 288 288 288 289 288 288 288 287 286 285 284 283 283 284 284 282 281 281 281 283 283 280 279 279 279 279 280 279 278 278 277 276 275 275 275 275 278 277 276 277 275 275 274 273 272 270 272 276 277 277 276 276 276 276 276 277 277 277 277 278 278 279 278
294 293 292 292 292 292 293 292 292 292 292 293 292 292 293 291 291 291 290 290 289 289 288 288 287 288 287 287 286 286 286 285 283 282 282 282 285 282 281 281 281 282 283 280 279 279 278 278 277 277 277 277 278 279 276 275 275 275 275 275 275 274 274 275 276 276 273 271 271 272 273 275 276 275 275 276 277 277 277 277 278 279 280 278 278
293 294 292 292 292 292 293 291 291 291 291 291 292 291 292 292 290 289 289 287 288 287 286 286 286 286 286 285 285 285 284 283 282 281 281 282 281 282 281 281 280 282 282 279 279 278 278 277 277 277 278 276 277 277 277 276 276 276 275 275 274 275 275 275 275 274 274 274 271 271 272 272 271 273 276 276 276 277 277 277 276 276 277 277 277
294 294 293 292 291 291 291 291 291 291 292 292 291 291 290 290 289 288 287 286 286 286 286 285 285 285 284 284 283 283 283 282 281 281 281 281 281 283 281 280 281 282 280 278 278 278 278 277 277 277 277 276 276 276 277 277 276 276 275 275 275 275 274 273 273 274 273 272 272 272 272 273 272 272 274 276 277 276 276 276 276 276 277 276 277
Wind_Speed
3 6 4 2 4 1 12 13 15 16 17 17 16 16 15 15 16 16 17 16 16 17 17 18 18 21 20 19 20 20 20 19 18 18 18 18 18 19 19 19 19 19 18 18 18 18 18 18 18 18 18 19 19 19 19 20 20 20 20 20 20 20 20 20 19 20 20 19 18 19 19 19 19 19 16 16 16 17 17 17 14 7 6 8 13
7 6 2 1 1 0 13 14 16 17 17 17 17 16 16 14 14 17 17 17 17 17 18 19 21 20 20 19 19 19 19 18 18 18 18 18 18 18 19 19 18 18 19 19 19 19 18 18 19 19 19 19 19 20 20 20 20 20 20 20 20 20 20 20 19 19 19 20 20 19 18 19 19 18 16 18 18 18 17 17 18 9 2 11 13
6 4 1 0 2 10 11 15 16 17 17 17 17 17 16 15 14 15 17 17 17 18 19 20 20 20 19 19 19 19 19 19 19 18 18 18 19 19 19 19 19 19 19 19 19 19 19 19 19 19 19 19 19 20 20 20 20 20 20 20 20 20 20 19 18 18 18 19 19 19 18 18 19 19 17 17 18 18 17 17 16 16 8 15 10
2 2 1 1 11 12 14 15 16 17 17 17 17 17 16 15 15 15 15 17 18 19 20 19 19 19 19 19 19 19 18 18 18 18 18 18 18 19 19 19 19 19 19 19 19 18 18 18 18 18 18 18 18 19 19 19 19 19 19 19 20 20 20 19 18 18 18 18 19 16 7 8 11 18 17 17 17 17 16 17 17 17 17 16 16
3 2 1 2 5 11 14 14 16 17 18 18 17 16 17 16 16 16 16 17 18 19 19 19 18 18 18 18 18 18 18 18 18 18 18 18 18 18 18 18 18 18 18 18 18 18 18 18 18 18 18 18 18 18 18 18 18 19 19 19 19 19 19 19 18 18 18 18 17 12 7 7 7 14 17 18 17 17 16 17 17 16 16 17 17
4 3 3 3 5 8 14 14 16 17 18 17 17 17 16 16 16 17 17 17 19 18 18 18 18 18 18 18 18 18 17 17 17 17 17 18 18 18 18 18 18 18 18 17 17 17 17 17 17 17 17 17 17 18 18 18 18 19 19 19 19 19 19 18 18 18 18 17 14 7 8 6 7 8 18 18 18 17 17 17 17 16 15 16 16
6 4 4 4 4 8 14 15 16 17 17 17 17 17 16 16 17 17 17 18 18 18 17 17 17 17 17 17 17 17 17 17 17 17 17 17 17 17 17 17 17 17 17 17 17 17 17 17 17 17 17 17 18 17 17 18 18 19 19 19 19 18 18 17 18 19 19 11 6 6 7 6 7 6 16 18 18 18 17 17 17 16 15 15 16
6 5 4 4 4 9 13 15 17 18 18 18 17 16 17 17 17 17 17 17 17 17 17 17 17 17 17 17 17 17 17 16 16 16 17 17 17 17 17 17 17 17 17 17 17 17 17 17 17 17 17 18 18 17 17 17 18 18 18 19 18 18 17 17 18 18 18 7 6 6 7 5 7 6 14 18 18 18 18 17 16 15 16 16 14
7 7 6 5 6 11 12 14 17 18 18 17 17 17 16 16 16 16 17 16 16 16 16 16 17 17 17 16 16 16 16 16 16 17 17 17 17 16 16 17 17 17 17 17 18 18 17 17 17 17 17 17 18 17 17 17 17 17 18 18 18 18 18 18 18 17 9 6 7 7 8 6 7 6 12 18 17 18 18 15 12 15 14 14 13
7 8 7 5 7 11 13 16 18 19 17 18 18 17 17 17 16 15 15 15 16 16 16 16 16 16 16 16 16 16 16 17 17 17 16 16 16 17 17 17 17 17 17 17 17 17 17 17 17 17 17 18 18 18 17 16 16 17 17 18 17 17 17 17 18 11 7 6 7 7 7 13 6 8 13 18 18 18 17 16 12 12 11 14 14
11 8 7 8 10 14 15 17 19 18 17 17 17 17 16 16 15 15 15 15 15 15 15 16 16 16 16 16 16 16 17 16 16 16 16 16 17 17 17 17 17 17 17 18 18 18 17 18 18 18 18 18 18 18 18 16 16 17 17 17 17 17 16 17 14 6 7 8 8 6 7 14 7 7 15 18 18 18 16 16 15 13 14 14 14
10 9 9 8 11 13 14 16 17 17 17 17 17 17 16 15 15 15 15 15 15 15 15 16 16 16 16 16 16 16 16 16 16 16 16 17 17 17 18 18 18 18 19 19 19 19 18 18 18 18 18 18 18 18 18 17 17 17 16 17 17 17 16 17 9 7 6 7 7 6 6 7 8 11 19 18 18 18 18 16 15 14 14 14 14
10 9 9 9 8 13 13 15 16 17 16 16 16 16 15 15 15 15 15 15 15 15 15 16 16 16 16 16 16 16 16 16 16 17 17 17 17 18 18 18 19 19 19 19 19 19 18 18 18 18 18 18 18 18 18 17 17 17 17 17 17 16 15 16 6 7 7 7 6 7 6 6 7 16 17 19 19 19 18 17 16 15 14 14 15
10 9 8 8 8 13 15 14 15 16 16 16 16 15 15 15 14 15 15 15 15 15 15 15 15 16 16 15 15 15 15 16 17 17 17 17 17 18 18 18 18 19 19 19 18 18 18 18 18 18 18 19 18 19 18 18 18 18 18 17 17 16 17 8 10 6 6 7 6 6 5 6 6 17 16 18 19 19 17 18 17 16 15 14 13
10 9 8 8 7 8 16 16 14 16 16 15 16 15 15 15 14 14 15 15 15 15 15 15 15 15 14 14 14 14 15 15 16 16 17 17 17 18 17 18 18 18 18 19 18 19 19 19 18 18 18 19 19 19 18 18 18 18 18 18 17 17 19 6 7 5 7 7 6 6 6 6 13 18 17 17 18 18 19 17 16 16 15 15 15
9 8 8 8 8 8 7 10 14 15 15 15 15 15 15 14 15 15 14 14 14 14 14 14 14 13 13 13 13 14 14 14 15 16 16 17 17 17 17 17 18 19 19 20 19 19 19 19 19 19 19 19 19 19 19 18 19 19 19 18 18 19 18 12 6 6 7 7 7 6 7 6 18 18 17 17 18 18 18 17 17 16 15 14 14
7 6 9 8 7 7 6 5 8 13 14 15 14 14 14 15 14 14 14 14 13 13 13 12 12 12 12 12 13 13 14 15 15 15 15 16 17 17 18 18 18 18 18 19 19 19 19 19 19 18 18 19 19 19 18 19 19 19 19 19 19 19 19 15 6 6 7 8 8 7 7 7 15 18 17 16 17 18 17 16 16 16 14 15 15
8 6 9 7 7 7 6 4 5 6 6 9 12 14 14 15 14 14 14 13 13 11 10 11 11 11 12 12 14 14 15 15 15 14 15 15 17 17 18 18 17 17 17 18 19 19 19 19 19 19 19 19 20 19 19 18 18 18 18 19 19 19 18 14 6 6 7 9 8 7 7 13 20 18 18 16 16 18 17 17 16 16 15 14 15
7 8 7 7 6 6 5 4 4 5 6 7 5 8 14 13 13 13 12 11 11 11 10 9 9 10 10 11 12 14 14 15 15 14 15 15 15 14 17 17 17 17 18 18 19 19 19 20 19 19 18 19 20 19 19 19 18 18 18 18 19 19 16 9 6 6 6 7 7 7 8 19 19 19 18 16 15 17 17 16 15 14 14 14 14
7 6 7 5 5 5 4 4 4 5 6 6 5 5 8 12 11 11 10 10 11 12 12 11 10 9 9 9 10 7 8 8 14 9 13 13 13 12 16 16 17 18 17 18 19 19 19 19 18 18 18 19 19 19 18 18 18 19 18 19 17 15 8 6 5 6 6 7 8 7 13 20 19 19 18 16 15 15 17 16 15 14 14 14 14
5 4 5 5 4 5 4 4 4 5 5 4 4 5 5 8 7 8 9 10 11 11 10 9 8 7 6 8 8 5 5 5 6 6 10 7 11 12 14 16 16 16 16 18 19 17 18 18 18 18 18 19 18 17 16 17 17 18 18 17 15 8 7 6 6 6 7 7 8 7 19 20 19 19 17 16 14 14 16 16 14 14 14 14 14
5 4 4 5 5 3 4 4 4 4 4 4 3 4 4 5 4 4 4 5 7 7 6 4 5 5 8 7 6 5 6 5 5 7 6 7 7 13 12 14 14 15 15 18 18 16 18 18 18 18 18 18 17 8 8 11 15 17 17 16 8 6 6 6 6 6 8 7 8 10 21 20 19 18 17 15 14 15 16 16 14 13 13 14 14
5 4 4 4 3 3 3 4 4 4 4 3 3 3 4 3 3 3 3 5 5 4 4 4 4 5 6 6 6 6 5 4 5 7 7 9 8 12 12 12 13 13 14 16 15 15 17 18 18 17 17 16 9 7 7 7 8 13 12 8 6 7 7 7 6 6 7 7 7 15 20 20 20 18 16 14 14 15 16 15 13 13 14 14 13
4 4 4 3 2 3 3 4 4 4 4 3 3 4 3 2 3 3 3 3 3 3 4 4 5 5 6 5 5 4 5 5 7 10 8 6 7 9 11 10 11 10 14 9 11 11 15 14 14 15 10 6 7 7 7 7 7 7 7 7 7 7 7 6 6 7 7 7 8 19 20 20 20 18 15 13 14 15 15 14 12 12 13 14 13
4 3 3 3 2 2 2 3 3 4 4 3 4 4 3 4 3 3 4 3 3 3 4 5 5 5 6 5 4 4 5 6 5 6 6 6 6 6 6 6 5 6 9 6 6 7 7 7 7 7 6 6 7 7 7 8 8 8 7 7 7 8 7 6 6 7 7 7 8 20 21 20 19 17 13 13 14 15 14 12 12 12 13 14 14
3 5 3 2 2 2 3 3 4 4 4 5 4 3 4 4 4 3 5 3 3 4 4 5 5 5 4 4 4 6 5 6 5 6 6 6 6 6 6 6 5 6 6 6 7 7 7 6 6 7 7 6 7 7 7 7 8 8 8 8 8 8 7 6 6 7 7 7 9 19 20 20 17 15 12 14 14 14 12 10 10 12 13 14 15
5 4 3 2 1 1 2 3 4 4 4 4 4 4 4 3 3 4 5 3 3 5 4 4 4 4 4 4 5 5 5 5 6 6 6 6 6 6 6 5 5 6 6 6 7 7 6 6 6 6 7 7 8 8 8 8 7 8 8 8 7 7 6 6 6 7 7 7 8 18 19 19 15 14 14 14 13 12 11 11 14 14 14 14 15
4 4 3 3 3 3 2 3 3 4 3 4 4 5 2 3 3 3 3 2 5 4 3 3 3 4 4 3 3 4 4 6 5 5 5 5 6 5 5 5 5 6 6 6 6 6 6 6 6 6 8 8 8 9 8 8 8 7 7 8 8 7 6 6 6 7 7 7 7 12 17 17 14 14 14 14 12 12 12 12 13 15 16 16 16
4 4 4 4 4 2 2 3 4 4 3 3 4 3 3 3 4 4 3 3 4 3 2 1 3 2 3 3 3 5 4 4 5 4 5 5 5 5 5 5 5 6 5 6 5 6 6 5 6 6 7 7 8 8 8 8 7 7 7 8 8 8 6 6 6 7 6 7 7 9 17 17 15 14 13 12 11 12 13 14 15 15 16 17 17
5 4 4 4 2 2 4 4 4 4 3 4 3 4 3 4 3 3 1 3 3 2 2 2 1 2 3 3 3 3 4 3 4 5 5 6 6 6 5 5 5 6 5 6 6 5 6 6 6 6 7 7 7 7 7 8 8 7 7 8 8 7 6 6 7 7 7 7 7 7 14 15 12 11 12 12 12 12 13 14 15 16 17 17 17
4 4 4 4 4 4 4 3 3 3 3 4 3 3 3 4 3 1 1 3 1 2 2 2 1 2 2 3 4 2 3 4 5 5 6 6 6 6 5 5 6 6 5 6 5 5 5 5 4 5 6 6 6 6 7 8 8 7 7 8 8 7 7 7 7 7 7 7 7 7 7 10 11 12 12 12 13 13 14 15 16 16 17 17 17
5 5 4 4 4 4 4 3 3 2 4 3 3 3 4 3 2 2 2 1 2 3 2 2 1 1 1 3 3 3 3 4 4 5 5 5 5 6 5 5 6 6 5 6 7 5 5 5 5 4 4 5 6 6 6 6 7 8 8 9 8 8 8 7 7 7 7 7 7 6 6 5 9 13 13 13 13 14 14 15 15 16 16 17 17
4 5 5 5 5 4 4 3 3 3 3 3 3 2 2 2 2 1 0 2 3 2 2 2 2 1 3 3 4 3 3 5 5 4 4 4 4 5 6 6 6 6 6 6 6 6 6 6 6 5 6 6 6 6 6 7 7 8 8 8 8 8 8 7 7 7 7 6 6 5 5 4 4 8 12 13 14 15 15 15 15 16 16 16 17
4 3 3 4 3 3 3 3 3 4 4 3 4 4 3 2 1 1 0 2 2 3 1 1 2 3 4 4 4 4 4 5 4 4 4 5 5 5 6 7 6 6 6 6 7 6 6 6 6 7 7 6 7 7 8 9 8 8 8 8 7 7 7 7 7 7 7 6 5 5 6 6 6 5 5 11 14 14 14 15 15 15 16 16 17
4 3 4 4 4 4 3 3 3 3 3 4 4 3 1 2 2 2 1 1 1 2 0 1 3 3 4 4 4 4 4 4 4 4 5 5 6 6 7 6 6 5 6 6 6 6 6 7 6 7 7 7 7 8 8 8 9 10 10 9 8 7 6 6 7 6 6 6 6 7 7 6 6 6 5 6 8 13 15 15 15 16 16 17 18
5 5 3 4 4 3 3 4 2 4 3 3 3 3 2 2 2 1 1 1 1 1 1 3 4 3 4 4 4 4 4 4 5 4 6 5 6 6 6 6 6 6 6 6 6 8 7 7 6 5 8 8 8 9 7 8 9 10 10 9 8 6 5 5 6 6 6 6 7 7 7 6 6 7 6 6 6 8 16 17 17 17 17 18 18
4 3 4 4 4 2 3 4 4 3 2 1 1 1 1 1 1 1 1 1 0 0 3 4 4 4 4 5 4 4 5 5 5 5 6 5 6 6 6 6 6 6 6 6 7 7 6 6 7 7 6 7 8 8 8 8 8 9 10 10 10 7 5 5 3 5 6 6 6 7 6 7 6 7 6 6 6 6 10 17 17 17 17 17 16
3 4 4 6 6 5 4 4 3 2 2 2 2 1 2 1 1 1 1 1 2 4 4 5 4 4 4 4 4 5 5 6 6 5 5 4 4 5 5 6 6 6 6 7 7 6 5 6 8 8 7 7 8 8 9 9 8 9 9 10 10 8 5 3 1 5 6 6 6 6 5 5 6 6 7 6 7 7 6 10 15 15 16 16 15
3 4 4 4 4 4 2 2 2 1 1 2 2 1 1 1 1 2 2 2 3 4 4 5 4 4 4 3 4 5 6 6 5 5 5 5 5 6 6 6 6 7 7 6 6 6 7 7 7 8 7 7 6 6 8 9 9 8 7 9 8 10 5 1 1 6 6 4 6 6 4 6 6 7 8 8 7 7 7 7 6 7 8 15 15
3 3 4 4 4 2 2 1 0 2 1 1 0 1 1 2 2 4 2 3 5 4 4 5 3 5 3 5 5 5 4 5 4 5 6 6 6 6 7 6 7 6 6 6 7 7 8 8 9 8 9 8 5 6 8 10 8 7 8 7 8 9 5 1 5 6 7 5 7 6 6 5 6 6 8 7 8 7 7 6 6 7 7 9 16
3 4 4 4 4 4 3 3 3 1 3 2 1 1 1 1 1 1 0 2 2 3 4 3 4 3 4 5 4 4 4 4 4 6 6 6 5 5 6 6 6 6 5 6 5 6 6 5 7 6 9 10 8 8 9 10 9 8 3 4 5 7 3 5 5 9 10 7 6 6 5 6 7 8 8 8 8 7 7 7 7 7 7 6 8
4 4 5 4 3 3 4 4 2 2 3 4 3 1 1 1 2 1 1 2 1 4 3 2 3 3 4 4 4 4 5 5 5 5 5 6 6 6 6 6 6 6 5 4 4 5 6 7 7 7 6 8 7 9 10 11 4 11 14 8 1 4 2 4 10 14 12 7 7 6 5 7 8 8 9 9 7 7 7 7 8 8 7 7 7
5 5 3 2 2 3 4 3 4 4 4 3 3 1 1 1 1 1 2 2 2 2 4 2 3 4 3 3 4 5 5 5 5 5 6 6 6 6 6 5 5 5 6 6 6 7 7 8 8 7 8 6 6 7 9 10 7 10 6 5 5 8 3 4 8 16 7 7 7 8 8 8 8 9 9 8 7 7 8 8 9 8 8 7 7
3 2 2 3 2 3 3 3 4 4 4 2 2 2 2 2 3 4 2 3 3 3 4 3 3 4 4 3 4 4 6 6 6 6 6 6 6 6 5 5 5 4 4 5 6 7 8 8 8 8 7 7 7 6 7 9 8 12 10 5 6 6 6 3 10 8 1 10 9 9 9 7 7 10 8 8 8 8 9 9 9 8 8 8 7
4 4 3 4 4 5 5 5 5 5 4 3 4 4 2 2 2 3 4 4 4 4 4 3 2 1 3 5 4 5 6 6 6 7 6 6 5 5 5 5 4 3 4 5 6 7 6 5 7 8 8 6 7 3 5 7 7 8 4 7 6 3 2 9 14 2 9 9 5 10 10 7 8 10 9 7 8 8 8 9 9 9 9 8 7
4 4 4 4 4 4 4 4 2 1 3 3 3 3 3 3 3 3 3 5 3 2 3 2 1 1 3 2 5 5 6 7 7 7 6 4 5 5 4 4 4 5 5 6 5 5 7 9 8 6 6 6 3 5 4 6 5 5 5 4 1 3 10 11 6 8 7 2 5 8 11 5 6 9 7 6 9 9 8 8 8 9 8 7 7
4 3 3 4 3 4 4 3 3 3 3 3 2 3 3 3 4 3 3 5 5 0 0 0 1 2 5 5 5 5 6 8 7 6 5 4 4 4 4 4 4 4 6 6 6 7 7 6 6 6 6 5 4 4 6 6 3 3 5 3 3 3 4 7 7 10 11 1 1 10 11 7 8 9 6 7 9 9 9 7 8 8 7 6 6
4 3 4 4 5 4 4 4 4 4 3 3 4 3 6 5 5 4 4 4 4 3 2 3 3 3 6 5 5 5 7 7 6 5 4 4 4 5 4 4 5 5 5 5 6 6 6 6 6 5 5 4 4 5 5 5 6 5 4 4 4 3 3 3 3 6 9 14 14 7 6 11 10 6 4 9 8 9 9 8 7 7 5 5 6
4 5 5 5 4 5 6 5 5 4 3 4 4 4 5 5 6 6 6 3 4 4 4 4 5 5 7 5 5 5 5 5 4 4 3 4 3 3 4 5 6 5 5 6 6 6 5 5 6 6 6 6 4 4 4 6 5 5 4 3 3 3 4 3 4 5 9 12 12 10 14 15 12 1 5 5 7 8 7 6 5 5 4 5 6
4 4 4 5 5 5 6 6 5 4 3 4 6 5 4 5 6 5 7 4 4 4 5 6 5 5 6 5 5 6 5 4 4 4 4 4 4 4 5 5 4 5 6 6 5 5 5 5 6 5 5 5 4 4 5 5 4 4 3 4 5 5 5 6 5 8 8 6 10 15 13 13 15 15 9 8 10 10 7 6 6 5 5 5 6
4 6 5 5 5 6 6 7 4 4 4 5 5 5 4 5 6 5 6 6 4 4 6 5 4 5 5 4 4 3 3 3 3 4 4 3 4 4 5 4 5 6 6 6 5 5 5 5 5 5 5 4 5 5 4 5 4 4 4 5 5 5 6 7 8 8 8 8 11 12 11 8 11 14 13 10 9 8 6 6 5 5 4 5 6
Wind_Direction
43 18 0 52 97 298 100 94 89 85 82 79 76 73 69 73 71 70 69 70 72 72 72 70 68 66 64 64 63 63 62 60 59 57 56 55 54 54 53 51 49 47 44 42 41 41 39 37 36 34 33 31 29 28 25 23 21 19 17 15 13 11 10 9 9 9 11 13 13 13 9 6 4 359 6 10 13 22 12 4 9 3 352 339 356
301 328 348 1 132 336 95 93 92 89 85 81 79 74 70 66 73 71 69 69 66 69 70 67 65 66 67 66 64 64 63 61 58 56 55 54 53 53 52 50 48 47 45 42 39 37 36 34 32 31 29 28 27 25 24 22 19 17 16 14 12 11 10 10 8 10 12 12 13 13 10 5 1 358 1 3 8 12 8 2 359 1 360 350 357
265 285 256 333 67 111 105 99 93 90 86 82 79 76 73 70 64 72 71 69 68 66 66 65 66 66 66 65 64 62 61 59 57 55 53 52 51 49 49 48 46 44 43 41 38 36 33 32 29 28 26 25 24 23 21 20 18 15 14 12 10 9 9 10 8 11 12 13 14 12 7 4 359 353 358 4 7 8 3 0 356 354 348 359 360
163 147 10 19 95 96 99 97 95 90 87 84 79 77 75 73 68 68 69 67 62 63 64 65 66 67 66 65 64 62 61 59 58 56 54 52 51 49 47 45 44 42 41 39 37 35 34 31 29 27 26 24 22 21 20 18 16 15 13 11 9 7 6 8 7 10 12 13 12 12 3 358 353 348 350 1 3 3 360 359 356 352 351 353 1
112 96 97 79 92 99 99 100 95 91 89 85 82 80 77 75 75 73 73 70 67 66 66 68 68 68 68 67 66 64 63 61 59 56 54 52 50 48 47 45 43 41 40 38 37 34 32 30 27 25 24 23 21 20 18 17 16 14 13 11 9 8 6 5 7 9 11 12 11 9 359 357 352 345 347 358 359 359 357 356 354 350 351 353 355
108 92 78 68 82 97 101 98 95 90 87 85 83 80 79 78 78 76 75 73 70 71 72 71 71 70 69 68 66 65 63 61 59 57 55 52 49 46 44 42 40 38 37 36 35 34 32 29 26 24 22 21 20 18 17 16 16 14 13 12 11 10 8 7 10 9 9 12 9 4 356 352 354 343 343 354 356 354 353 354 352 348 349 352 352
99 78 73 67 77 97 101 98 94 89 86 84 83 82 80 78 77 77 75 75 76 75 74 73 71 70 69 68 66 65 63 61 60 58 55 52 49 46 43 41 39 37 35 33 32 31 29 28 25 22 20 19 17 15 14 15 15 14 13 13 13 12 12 15 13 11 9 10 1 360 351 346 354 343 338 349 351 350 351 354 348 346 347 349 351
81 77 73 72 82 101 98 93 91 90 87 85 85 83 81 79 79 78 78 78 78 76 75 73 71 70 69 68 67 65 64 62 60 57 54 51 48 45 42 39 37 35 33 31 29 27 26 25 22 20 17 15 14 12 11 12 12 12 12 12 14 14 15 17 14 10 6 1 355 355 349 344 352 342 331 346 348 347 351 350 346 344 347 345 347
81 74 67 72 86 94 96 94 92 88 86 85 85 85 83 82 83 83 81 79 78 76 75 73 72 70 68 67 65 63 62 59 57 54 52 49 47 44 41 38 35 32 30 28 26 24 22 21 19 16 14 12 12 12 10 9 9 10 11 12 13 14 15 14 12 6 1 353 348 349 346 349 353 335 324 345 346 347 349 347 341 342 342 340 340
68 76 76 69 77 85 91 91 85 85 89 90 88 88 87 86 85 84 83 81 78 76 75 73 72 71 69 66 64 60 57 55 53 51 50 47 45 42 40 37 34 31 28 26 24 21 19 17 17 15 13 13 14 13 10 10 8 11 12 13 13 11 11 11 8 359 355 346 344 346 344 353 350 336 319 346 346 345 346 343 339 337 336 338 338
64 54 58 72 80 82 82 83 85 88 88 89 90 88 88 87 86 85 83 81 79 77 75 74 72 69 67 64 61 58 56 54 52 50 48 46 43 40 37 34 32 29 27 25 23 21 18 18 17 16 15 14 13 13 11 10 9 12 11 13 12 9 7 9 9 353 347 347 341 340 344 347 342 325 324 345 346 344 343 341 338 338 338 341 341
61 60 55 49 60 70 79 83 86 87 88 88 88 88 88 87 85 84 82 80 79 77 76 74 72 68 66 64 61 58 56 54 51 49 46 43 40 37 34 31 29 27 25 24 22 20 18 16 16 15 14 12 12 11 11 10 9 11 10 11 10 8 11 10 9 354 345 342 339 334 337 340 333 318 336 343 345 344 342 340 339 340 343 346 345
60 58 58 52 44 55 72 79 85 87 86 87 88 88 88 87 86 84 82 80 79 78 76 73 71 69 66 64 61 59 57 54 50 46 42 38 35 32 30 29 27 25 22 20 18 17 13 11 12 11 10 11 11 11 10 10 10 11 9 10 10 10 10 10 8 357 344 338 334 329 329 326 329 323 338 344 344 343 342 339 339 341 344 345 340
70 59 55 54 55 48 59 74 85 86 87 87 87 88 87 86 85 83 81 80 79 77 75 74 72 70 68 65 63 60 57 53 49 45 40 35 31 29 27 25 23 22 20 18 15 12 11 9 9 9 9 10 9 10 9 9 9 9 8 8 7 9 10 19 4 354 343 335 329 320 319 320 307 329 334 342 344 339 338 337 337 339 341 331 335
75 68 68 59 49 47 53 61 76 85 85 86 87 86 86 84 83 81 80 78 77 77 75 73 72 71 69 66 63 60 56 52 47 42 37 33 28 24 22 21 20 18 17 15 13 12 10 9 9 8 8 9 8 8 8 8 7 6 5 5 3 4 3 15 2 351 344 337 327 321 313 313 315 329 331 338 343 339 333 334 334 341 336 341 338
69 69 77 68 56 50 39 50 65 74 78 82 84 83 83 81 79 78 78 77 77 76 74 73 70 68 65 62 59 55 52 48 44 38 33 29 24 19 16 15 16 15 14 13 11 9 9 8 6 6 7 7 7 5 5 4 4 3 2 1 360 357 356 1 358 348 346 338 330 334 325 309 316 322 334 335 341 339 333 337 337 342 340 338 339
82 77 78 73 67 62 51 43 54 63 72 79 79 79 79 77 76 75 75 74 73 72 72 71 70 66 63 59 56 53 48 42 37 32 27 24 23 16 13 11 11 11 9 10 9 7 7 6 5 3 5 5 4 3 2 1 1 360 359 358 356 353 351 353 354 345 343 341 342 333 322 317 309 329 334 334 339 338 336 335 337 340 342 342 339
79 75 75 72 74 73 66 59 58 63 61 59 68 75 76 77 76 74 72 69 66 63 64 65 63 63 60 56 52 49 44 40 33 27 22 18 18 14 11 8 7 8 6 8 7 6 5 4 3 2 3 4 2 0 359 357 356 356 356 355 353 350 347 348 343 339 341 341 336 330 330 313 329 334 334 334 338 341 338 337 339 339 338 338 339
69 80 82 88 85 86 83 76 75 77 71 67 54 66 73 72 71 66 64 63 57 50 44 42 43 56 56 50 46 44 41 36 32 25 22 15 14 9 10 8 8 6 6 7 5 4 4 3 1 1 2 3 1 359 356 354 352 350 351 353 351 350 346 344 335 334 337 337 331 332 319 325 334 335 334 333 335 341 340 338 337 337 336 336 335
69 64 86 89 98 100 97 86 83 78 75 72 67 63 69 73 70 66 63 60 54 49 49 49 45 48 48 46 45 40 31 24 31 21 17 13 10 7 10 9 8 6 5 6 3 2 3 1 2 2 2 0 360 358 355 353 350 348 346 346 347 350 345 336 330 329 331 331 332 328 318 333 334 335 335 332 331 338 342 337 335 336 338 338 335
90 82 93 94 93 97 89 90 90 89 85 84 81 81 80 74 65 71 68 62 55 51 50 43 39 24 31 34 31 30 28 20 16 19 15 9 6 5 5 7 8 6 7 6 2 1 3 2 2 1 0 358 357 355 350 348 346 344 343 340 345 347 335 334 330 326 334 334 329 319 326 334 334 334 336 333 332 333 341 334 332 336 337 337 335
95 85 81 95 96 97 117 114 97 93 97 97 96 89 81 75 69 64 64 56 52 50 44 46 36 31 30 31 30 21 19 14 10 19 19 10 360 358 2 6 7 11 11 6 3 3 2 2 1 359 358 355 355 352 343 341 341 341 341 338 340 330 334 333 332 332 334 330 329 320 331 333 333 333 336 337 333 332 339 332 330 335 335 334 334
100 99 88 101 124 135 121 113 106 102 99 100 100 86 72 72 62 61 63 58 52 50 49 48 46 43 41 36 31 24 19 8 7 21 19 11 359 358 2 1 7 12 10 4 3 1 360 358 358 359 356 352 350 343 341 337 334 338 339 335 326 328 330 334 333 333 331 324 328 323 334 334 333 332 332 334 333 333 337 330 328 335 333 332 334
123 126 129 119 129 133 137 124 123 126 115 106 69 61 58 51 34 34 53 57 49 46 53 53 48 48 44 41 29 23 21 13 9 11 15 8 357 357 356 2 3 10 4 2 357 353 355 352 352 356 352 345 342 341 340 334 334 333 332 331 326 325 331 333 333 334 330 326 325 325 334 336 334 331 331 336 333 332 335 329 326 332 332 330 333
136 130 110 131 154 153 137 124 133 124 103 96 93 90 88 70 61 70 71 55 55 45 52 53 47 47 42 41 30 26 19 15 11 5 8 3 1 355 354 360 355 6 357 360 355 349 353 347 346 349 347 341 341 340 340 337 334 333 332 329 328 328 332 334 336 335 329 327 321 327 331 335 335 332 338 339 336 337 339 333 330 331 333 331 329
118 111 143 133 157 159 141 148 122 112 109 115 113 104 87 77 67 57 70 38 63 56 49 50 48 45 47 34 30 24 14 15 9 5 3 1 359 351 354 355 1 3 357 358 355 352 348 344 346 347 343 342 343 340 338 336 331 330 330 330 330 330 329 330 334 334 328 326 323 324 325 331 333 332 338 335 340 340 340 335 326 333 337 331 327
130 146 160 160 171 143 135 120 103 95 101 111 95 86 83 108 97 77 80 39 48 54 48 61 55 56 49 40 42 21 18 16 10 3 1 357 357 355 352 354 3 3 356 2 351 347 344 344 345 347 345 349 342 339 337 335 333 329 325 326 328 327 325 327 329 329 323 321 318 320 321 329 335 335 341 339 338 341 326 334 341 339 329 326 327
118 152 144 154 162 173 146 94 115 112 128 110 94 92 111 83 65 66 66 60 57 46 61 81 74 55 53 45 61 53 38 20 10 6 349 1 355 350 353 0 0 357 349 5 354 343 342 346 350 348 352 348 342 336 334 333 329 326 322 324 326 327 321 320 322 323 322 319 318 316 319 329 338 341 338 337 337 334 333 341 337 336 336 335 333
131 158 163 150 184 170 99 91 100 113 121 114 101 109 101 77 60 71 57 50 52 49 99 99 80 61 44 51 53 43 32 31 13 359 355 4 352 355 356 352 352 353 358 354 359 343 341 344 350 351 353 344 337 331 329 327 325 325 325 322 325 320 317 318 324 323 321 317 316 313 320 325 332 340 342 342 341 334 341 335 336 335 336 336 331
166 169 159 173 158 129 125 122 124 132 134 97 127 105 99 82 63 82 70 61 39 49 95 98 119 85 51 51 53 74 60 46 14 4 19 359 357 353 353 347 344 351 0 358 350 348 340 340 352 356 349 337 328 324 328 325 327 326 324 323 321 319 313 324 325 323 318 318 317 316 322 329 347 5 359 352 349 347 344 342 340 340 336 336 335
160 169 156 148 142 121 118 123 115 125 120 108 131 115 86 100 113 132 72 61 48 60 70 99 77 80 97 55 50 48 67 41 29 18 16 8 357 354 344 331 355 350 354 358 347 352 336 336 338 347 338 329 322 320 327 326 325 324 324 325 322 321 326 328 325 321 323 323 321 321 323 337 5 19 14 5 358 351 345 343 344 342 341 338 338
161 177 160 148 131 135 141 107 102 115 103 119 121 123 99 108 131 115 80 63 72 57 39 69 46 56 67 60 43 43 51 44 38 21 21 9 358 354 346 354 351 344 351 1 351 347 337 320 335 342 327 321 320 321 325 325 325 326 327 327 326 326 326 326 322 320 320 320 320 325 328 333 1 20 20 14 6 356 351 348 346 342 341 341 338
190 171 167 145 144 153 137 121 93 83 97 102 97 77 83 98 137 134 141 65 66 67 53 37 86 90 70 54 38 45 45 46 34 33 18 14 7 6 2 356 349 347 353 355 349 347 343 337 337 338 339 334 328 331 332 332 328 328 327 322 325 322 324 324 320 323 322 318 327 329 334 334 356 14 20 21 14 6 1 354 345 341 342 341 339
181 187 136 146 148 133 137 129 108 99 89 95 93 80 75 112 138 200 173 85 87 80 51 10 72 86 72 48 48 47 46 41 37 21 30 20 15 15 10 1 348 344 347 354 351 345 343 344 342 346 343 339 339 339 341 337 331 326 326 321 319 320 324 324 327 326 321 330 335 348 339 346 3 10 15 20 20 9 1 352 345 344 343 342 340
150 148 154 163 135 144 143 132 124 107 93 93 95 97 114 133 164 185 188 133 124 94 8 59 82 90 73 56 55 54 43 41 35 39 32 29 21 15 9 352 344 348 352 350 353 347 352 350 344 343 336 343 344 340 343 335 332 329 326 323 316 322 326 328 329 336 345 348 357 358 356 2 7 7 15 17 13 8 4 358 353 349 346 343 341
164 173 154 142 146 153 146 132 119 122 118 118 124 120 128 164 184 191 197 186 105 78 46 70 94 78 71 64 50 57 48 40 37 39 40 30 28 17 1 353 355 354 353 351 358 1 350 344 338 340 347 347 345 340 341 337 332 324 320 317 312 317 326 337 344 349 351 354 13 9 8 12 6 8 9 7 9 357 8 3 356 349 347 345 342
167 151 158 149 162 170 143 137 147 152 139 107 115 139 132 209 242 216 210 220 158 45 50 87 79 73 68 64 52 57 48 40 35 36 45 29 23 20 4 2 357 359 351 356 4 355 352 341 341 351 357 342 341 335 334 335 329 323 320 319 319 320 327 349 340 5 354 13 8 8 11 8 8 13 12 10 1 0 357 355 352 351 349 347 343
165 167 176 166 180 181 160 156 164 156 164 177 190 195 239 289 6 11 329 309 345 41 69 83 80 83 74 68 61 61 52 43 37 32 37 28 29 24 6 6 357 358 1 7 358 346 347 354 349 345 349 349 342 339 337 335 331 324 319 315 312 310 309 344 351 25 7 5 3 5 358 359 5 16 15 11 6 357 346 343 346 346 346 347 345
153 167 171 180 166 157 134 142 155 151 189 185 213 250 359 1 33 17 354 345 32 56 89 85 94 82 78 84 67 59 53 49 47 37 38 25 21 15 15 6 7 6 7 356 350 351 358 355 352 343 346 349 337 336 335 329 327 316 307 303 295 296 298 324 85 29 7 4 354 357 357 5 11 18 12 6 359 351 346 345 343 344 340 346 350
162 162 169 168 158 126 117 102 177 155 124 96 299 269 34 33 337 337 350 359 27 64 60 101 95 82 86 73 68 63 56 62 51 47 41 31 22 16 11 7 9 6 357 355 355 0 357 353 354 347 342 341 349 344 343 339 317 310 309 290 279 285 294 296 71 22 9 4 359 353 359 358 19 10 9 1 351 344 344 346 347 347 342 334 339
181 158 158 171 160 161 139 184 224 159 156 192 228 212 251 353 25 32 164 11 65 79 81 79 80 95 85 76 77 77 71 61 54 48 40 31 29 18 15 9 6 1 356 356 352 351 354 355 349 346 347 346 351 355 347 341 326 316 273 257 292 286 321 100 29 18 8 5 354 350 355 12 13 8 2 352 344 343 345 346 345 338 332 327 323
219 165 176 186 162 134 153 198 217 202 202 194 196 147 188 190 163 197 130 57 89 115 108 90 103 81 75 90 95 88 71 59 53 50 40 37 26 18 17 7 357 352 355 347 356 357 359 4 360 354 357 353 350 352 352 349 1 354 335 343 230 310 327 88 27 1 1 351 345 350 1 10 8 1 354 346 341 344 347 343 338 333 326 325 323
191 192 188 152 157 150 181 192 199 200 222 203 144 157 212 217 125 176 135 108 43 86 110 110 96 86 70 83 87 76 71 58 50 44 41 29 27 22 7 355 356 357 0 358 358 4 3 5 5 358 352 5 354 347 359 12 342 337 293 297 338 4 338 8 16 349 321 354 347 353 2 3 1 357 349 337 340 345 343 341 334 330 326 325 322
196 181 143 177 182 188 197 195 212 212 210 198 163 180 156 117 88 133 97 93 114 88 80 69 70 73 58 63 64 74 66 59 48 42 41 32 28 23 4 3 357 3 9 1 3 7 5 3 3 7 6 357 358 347 5 4 5 357 5 356 302 340 341 36 341 311 356 355 3 346 346 349 354 349 346 340 343 344 339 337 332 329 326 324 323
205 196 174 176 190 196 198 190 194 203 199 163 159 151 100 32 25 59 76 65 57 54 58 33 17 68 71 55 52 69 66 61 47 40 35 33 28 26 15 358 354 352 12 14 13 7 1 358 8 9 6 356 347 342 348 7 12 32 4 348 346 1 59 321 329 271 18 350 333 340 325 344 355 347 338 335 342 338 337 335 333 332 332 332 336
206 208 185 189 180 190 188 187 178 139 137 158 153 104 82 105 59 59 62 67 70 60 103 151 122 118 106 86 60 58 68 60 46 38 30 34 31 23 9 358 356 360 20 19 6 0 9 11 8 2 352 350 354 344 356 1 7 40 25 71 69 294 326 326 353 313 344 264 0 315 315 349 356 341 331 341 340 336 338 333 335 336 341 353 2
216 184 170 173 168 170 167 146 125 112 121 99 81 99 75 76 101 119 136 142 128 221 238 305 101 42 63 66 68 57 56 58 43 35 25 27 38 22 8 6 3 12 23 14 11 13 9 6 357 355 346 347 358 18 7 353 348 22 15 15 0 344 315 340 336 319 328 55 346 320 318 339 353 336 335 346 335 335 332 334 334 338 345 5 8
180 130 133 146 146 146 121 109 107 104 86 89 63 87 108 108 100 95 108 133 135 142 51 53 54 79 72 59 68 62 56 53 43 31 25 20 30 18 9 11 18 9 21 13 16 10 8 358 353 348 346 3 360 25 7 360 23 344 358 7 349 340 328 300 296 327 312 316 320 306 296 328 340 334 348 336 334 330 326 330 332 334 345 355 3
140 148 152 152 125 109 102 98 88 88 69 84 88 69 103 114 115 115 88 69 93 85 88 71 68 67 78 60 65 57 58 48 43 33 23 25 19 16 13 20 19 4 20 14 16 12 2 348 350 355 1 355 4 9 22 3 10 355 356 353 338 338 326 318 308 333 330 320 310 324 327 329 327 252 350 322 322 322 319 318 322 327 340 350 353
150 136 132 118 109 105 102 96 88 87 101 85 90 85 99 110 101 106 111 101 94 80 74 69 64 62 74 59 54 51 37 31 21 23 24 16 14 18 25 21 14 12 23 14 10 3 351 354 357 354 1 7 359 4 21 2 13 357 14 341 355 348 351 348 351 341 329 318 313 316 327 334 333 322 335 338 334 327 322 324 328 330 340 345 350
136 131 124 117 111 107 106 95 100 95 87 90 93 94 88 89 105 108 115 117 102 96 81 59 64 65 74 61 61 57 45 38 18 16 16 9 20 25 24 15 24 26 20 11 7 356 349 358 353 357 9 17 3 13 12 10 13 7 358 4 353 356 357 351 344 343 340 329 322 312 318 326 316 313 322 333 328 316 315 323 323 334 338 341 345